Home   Weather   Buenos Aires   Past weeks
Flag for Argentina

Past Weather in Buenos Aires, Argentina — Yesterday and Last 2 Weeks

Now
57 °F

Clear.


Feels Like: 57 °F
Forecast: 64 / 49 °F
Wind: 2 mph from North

Location: Buenos Aires Airport

Current Time: Apr 8, 2020 at 12:42:19 am

Latest Report: Apr 8, 2020 at 12:00 am


Visibility: 10 mi

Pressure: 30.27 "Hg

Humidity: 59%

Dew Point: 43 °F

Location of Buenos AiresLocation

Past Weather in Buenos Aires — Graph

°F

Buenos Aires Temperature Yesterday

Maximum temperature yesterday: 64 °F (at 1:00 pm)
Minimum temperature yesterday: 52 °F (at 6:00 am)
Average temperature yesterday: 59 °F

High & Low Weather Summary for the Past Weeks

 TemperatureHumidityPressure
High86 °F (Mar 29, 1:00 pm)94% (Mar 30, 2:00 am)30.30 "Hg (Mar 30, 2:00 am)
Low52 °F (Apr 7, 6:00 am)28% (Apr 6, 5:00 pm)29.80 "Hg (Apr 5, 3:00 pm)
Average71 °F73%29.99 "Hg
* Reported Mar 23 11:00 pm — Apr 7 11:00 pm, Buenos Aires. Weather by CustomWeather, © 2020

Note: Actual official high and low records may vary slightly from our data, if they occured in-between our weather recording intervals... More about our weather records

Buenos Aires Weather History for the Previous 24 Hours

Scroll right to see more
 ConditionsComfort  
Time TempWeatherWind HumidityBarometerVisibility
11:00 pm
Tue, Apr 7
59 °FPassing clouds.3 mph55%30.27 "HgN/A
10:00 pm59 °FPassing clouds.6 mph55%30.27 "HgN/A
9:00 pm61 °FClear.6 mph52%30.27 "Hg10 mi
8:00 pm61 °FPassing clouds.5 mph48%30.24 "HgN/A
7:00 pm63 °FPassing clouds.8 mph45%30.24 "HgN/A
6:00 pm64 °FPassing clouds.5 mph43%30.24 "HgN/A
5:00 pm64 °FScattered clouds.9 mph43%30.24 "HgN/A
4:00 pm64 °FScattered clouds.6 mph43%30.27 "HgN/A
3:00 pm64 °FScattered clouds.6 mph43%30.27 "HgN/A
2:00 pm64 °FPartly sunny.6 mph43%30.27 "HgN/A
1:00 pm64 °FPartly sunny.5 mph43%30.30 "HgN/A
12:00 pm63 °FScattered clouds.8 mph49%30.30 "HgN/A
11:00 am61 °FPassing clouds.5 mph52%30.30 "HgN/A
10:00 am59 °FSunny.6 mph59%30.30 "Hg10 mi
9:00 am55 °FSunny.5 mph63%30.30 "Hg10 mi
8:00 am54 °FSunny.5 mph67%30.27 "Hg10 mi
7:00 am52 °FClear.3 mph72%30.27 "Hg10 mi
6:00 am52 °FClear.5 mph72%30.24 "Hg10 mi
5:00 am54 °FClear.6 mph63%30.24 "Hg10 mi
4:00 am54 °FClear.6 mph63%30.21 "Hg10 mi
3:00 am54 °FClear.5 mph67%30.24 "Hg10 mi
2:00 am54 °FClear.6 mph63%30.24 "Hg10 mi
1:00 am55 °FClear.6 mph59%30.24 "Hg10 mi
12:00 am57 °FClear.6 mph55%30.24 "Hg10 mi
Weather by CustomWeather, © 2020

See weather overview

Advertising